Tracking 31027 objects as of 19-Jul-2025
HD Live streaming from Space Station
objects crossing your sky now

SL-12 R/B(2)

Track SL-12 R/B(2) now!


NORAD ID: 26393
Int'l Code: 2000-035D
Perigee: 8,695.9 km
Apogee: 44,308.6 km
Inclination: 61.8 °
Period: 988.6 minutes
Semi major axis: 32873 km
RCS: 21.0772 m2 (large)
Launch date: June 30, 2000
Source: Commonwealth of Independent States (former USSR) (CIS)
Launch site: TYURATAM MISSILE AND SPACE COMPLEX (TTMTR)

Note: This is a ROCKET BODY
Your satellite tracking list
NOAA 16 DEB
Track 1 satellite(s)




NASA's NSSDC Master Catalog

Two Line Element Set (TLE):
1 26393U 00035D   25198.97103079  .00000186  00000-0  00000+0 0  9996
2 26393  61.7889 176.9604 5416671 293.8452  19.4741  1.45659402133278
Source of the keplerian elements: AFSPC